sat.trackr.live / text

‹ back to catalog

STARLINK-3357

NORAD 51150 · 2022-005AY

PAYLOAD ACTIVE UNKNOWN

§ Identity

Operator
Country
US
Launch date
2022-01-19
Launch site
AFETR
Launch vehicle
Mass (kg)
RCS (m²)

Purposes: comms

External: N2YO · Heavens-Above · Gunter

§ Orbital elements

Epoch: 2026-05-25T04:02:43.779264Z

Period
95.44 min
Inclination
53.2131°
Eccentricity
0.0001303
Mean motion
15.08836702 rev/d
Perigee alt
538.9 km
Apogee alt
540.7 km
Semi-major
6,917.9 km
B*
1.6490e-5
RAAN
315.4072°
Arg perigee
95.9276°
Mean anomaly
264.1865°
Rev number
24,029

§ Raw data

STARLINK-33571 51150U 22005AY  26145.16856226 -.00000025  00000+0  16490-4 0  99962 51150  53.2131 315.4072 0001303  95.9276 264.1865 15.08836702240295

JSON: /api/v1/satellites/51150 · /tle

For live sub-satellite position, see the globe view (requires WebGL).

§ Visibility from observer

Set your observer location to see the next 7 days of passes ≥ 10°. The values pass through the URL so the page stays shareable.

No JS? Fill the form by hand. The geolocation button needs JavaScript.